owner,sensor,date,latitude,longitude,air_pressure(mBar),qcFlag 
TABS,ioos:station:wmo:42043:1,2009-12-01T00:00:00Z,28.9818,-94.9186,1016.42,11111222 
TABS,ioos:station:wmo:42043:1,2009-12-01T00:30:00Z,28.9818,-94.9186,1016.35,11111222 
TABS,ioos:station:wmo:42043:1,2009-12-01T01:00:00Z,28.9818,-94.9186,1017.29,11111222 
TABS,ioos:station:wmo:42043:1,2009-12-01T01:30:00Z,28.9818,-94.9186,1016.85,11111222 
TABS,ioos:station:wmo:42043:1,2009-12-01T02:00:00Z,28.9818,-94.9186,1016.78,11111222 
TABS,ioos:station:wmo:42043:1,2009-12-01T02:30:00Z,28.9818,-94.9186,1016.81,11111222 
TABS,ioos:station:wmo:42043:1,2009-12-01T03:00:00Z,28.9818,-94.9186,1016.78,11111222 
TABS,ioos:station:wmo:42043:1,2009-12-01T03:30:00Z,28.9818,-94.9186,1016.26,11111222 
TABS,ioos:station:wmo:42043:1,2009-12-01T04:00:00Z,28.9818,-94.9186,1017.48,11111222 
TABS,ioos:station:wmo:42043:1,2009-12-01T04:30:00Z,28.9818,-94.9186,1017.24,11111222 
TABS,ioos:station:wmo:42043:1,2009-12-01T05:00:00Z,28.9818,-94.9186,1016.16,11111222 
TABS,ioos:station:wmo:42043:1,2009-12-01T05:30:00Z,28.9818,-94.9186,1016.41,11111222 
TABS,ioos:station:wmo:42043:1,2009-12-01T06:00:00Z,28.9818,-94.9186,1015.85,11111222 
TABS,ioos:station:wmo:42043:1,2009-12-01T06:30:00Z,28.9818,-94.9186,1016.01,11111222 
TABS,ioos:station:wmo:42043:1,2009-12-01T07:00:00Z,28.9818,-94.9186,1016.13,11111222 
TABS,ioos:station:wmo:42043:1,2009-12-01T07:30:00Z,28.9818,-94.9186,1015.8,11111222 
TABS,ioos:station:wmo:42043:1,2009-12-01T08:00:00Z,28.9818,-94.9186,1014.66,11111222 
TABS,ioos:station:wmo:42043:1,2009-12-01T08:30:00Z,28.9818,-94.9186,1013.96,11111222 
TABS,ioos:station:wmo:42043:1,2009-12-01T09:00:00Z,28.9818,-94.9186,1014.01,11111222 
TABS,ioos:station:wmo:42043:1,2009-12-01T09:30:00Z,28.9818,-94.9186,1013.95,11111222 
TABS,ioos:station:wmo:42043:1,2009-12-01T10:00:00Z,28.9818,-94.9186,1013.66,11111222 
TABS,ioos:station:wmo:42043:1,2009-12-01T10:30:00Z,28.9818,-94.9186,1013.23,11111222 
TABS,ioos:station:wmo:42043:1,2009-12-01T11:00:00Z,28.9818,-94.9186,1012.43,11111222 
TABS,ioos:station:wmo:42043:1,2009-12-01T11:30:00Z,28.9818,-94.9186,1012.39,11111222 
TABS,ioos:station:wmo:42043:1,2009-12-01T12:00:00Z,28.9818,-94.9186,1011.56,11111222 
TABS,ioos:station:wmo:42043:1,2009-12-01T12:30:00Z,28.9818,-94.9186,1011.01,11111222 
TABS,ioos:station:wmo:42043:1,2009-12-01T13:00:00Z,28.9818,-94.9186,1011.37,11111222 
TABS,ioos:station:wmo:42043:1,2009-12-01T13:30:00Z,28.9818,-94.9186,1010.69,11111222 
TABS,ioos:station:wmo:42043:1,2009-12-01T14:00:00Z,28.9818,-94.9186,1010.56,11111222 
TABS,ioos:station:wmo:42043:1,2009-12-01T14:30:00Z,28.9818,-94.9186,1009.66,11111222 
TABS,ioos:station:wmo:42043:1,2009-12-01T15:00:00Z,28.9818,-94.9186,1009.68,11111222 
TABS,ioos:station:wmo:42043:1,2009-12-01T15:30:00Z,28.9818,-94.9186,1010.53,11111222 
TABS,ioos:station:wmo:42043:1,2009-12-01T16:00:00Z,28.9818,-94.9186,1010.13,11111222 
TABS,ioos:station:wmo:42043:1,2009-12-01T16:30:00Z,28.9818,-94.9186,1008.88,11111222 
TABS,ioos:station:wmo:42043:1,2009-12-01T17:00:00Z,28.9818,-94.9186,1008.49,11111222 
TABS,ioos:station:wmo:42043:1,2009-12-01T17:30:00Z,28.9818,-94.9186,1007.51,11111222 
TABS,ioos:station:wmo:42043:1,2009-12-01T18:00:00Z,28.9818,-94.9186,1005.64,11111222 
TABS,ioos:station:wmo:42043:1,2009-12-01T18:30:00Z,28.9818,-94.9186,1004.7,11111222 
TABS,ioos:station:wmo:42043:1,2009-12-01T19:00:00Z,28.9818,-94.9186,1003.8,11111222 
TABS,ioos:station:wmo:42043:1,2009-12-01T19:30:00Z,28.9818,-94.9186,1002.92,11111222 
TABS,ioos:station:wmo:42043:1,2009-12-01T20:00:00Z,28.9818,-94.9186,1002.46,11111222 
TABS,ioos:station:wmo:42043:1,2009-12-01T20:30:00Z,28.9818,-94.9186,1002.64,11111222 
TABS,ioos:station:wmo:42043:1,2009-12-01T21:00:00Z,28.9818,-94.9186,1002.97,11111222 
TABS,ioos:station:wmo:42043:1,2009-12-01T21:30:00Z,28.9818,-94.9186,1002.75,11111222 
TABS,ioos:station:wmo:42043:1,2009-12-01T22:00:00Z,28.9818,-94.9186,1002.94,11111222 
TABS,ioos:station:wmo:42043:1,2009-12-01T22:30:00Z,28.9818,-94.9186,1003.11,11111222 
TABS,ioos:station:wmo:42043:1,2009-12-01T23:00:00Z,28.9818,-94.9186,1002.26,11111222 
TABS,ioos:station:wmo:42043:1,2009-12-01T23:30:00Z,28.9818,-94.9186,1002.3,11111222 
TABS,ioos:station:wmo:42043:1,2009-12-02T00:00:00Z,28.9818,-94.9186,1002.11,11111222 
TABS,ioos:station:wmo:42043:1,2009-12-02T00:30:00Z,28.9818,-94.9186,1001.67,11111222 
TABS,ioos:station:wmo:42043:1,2009-12-02T01:00:00Z,28.9818,-94.9186,1000.54,11111222 
TABS,ioos:station:wmo:42043:1,2009-12-02T01:30:00Z,28.9818,-94.9186,1003.44,11111222 
TABS,ioos:station:wmo:42043:1,2009-12-02T02:00:00Z,28.9818,-94.9186,1002.77,11111222 
TABS,ioos:station:wmo:42043:1,2009-12-02T02:30:00Z,28.9818,-94.9186,1004.91,11111222 
TABS,ioos:station:wmo:42043:1,2009-12-02T03:00:00Z,28.9818,-94.9186,1002.99,11111222 
TABS,ioos:station:wmo:42043:1,2009-12-02T03:30:00Z,28.9818,-94.9186,1003.29,11111222 
TABS,ioos:station:wmo:42043:1,2009-12-02T04:00:00Z,28.9818,-94.9186,1001.91,11111222 
TABS,ioos:station:wmo:42043:1,2009-12-02T04:30:00Z,28.9818,-94.9186,1000.92,11111222 
TABS,ioos:station:wmo:42043:1,2009-12-02T05:00:00Z,28.9818,-94.9186,1000.65,11111222 
TABS,ioos:station:wmo:42043:1,2009-12-02T05:30:00Z,28.9818,-94.9186,1001.7,11111222 
TABS,ioos:station:wmo:42043:1,2009-12-02T06:00:00Z,28.9818,-94.9186,1003.63,11111222 
TABS,ioos:station:wmo:42043:1,2009-12-02T06:30:00Z,28.9818,-94.9186,1003.87,11111222 
TABS,ioos:station:wmo:42043:1,2009-12-02T07:00:00Z,28.9818,-94.9186,1002.84,11111222 
TABS,ioos:station:wmo:42043:1,2009-12-02T07:30:00Z,28.9818,-94.9186,1003.1,11111222 
TABS,ioos:station:wmo:42043:1,2009-12-02T08:00:00Z,28.9818,-94.9186,1003.55,11111222 
TABS,ioos:station:wmo:42043:1,2009-12-02T08:30:00Z,28.9818,-94.9186,1003.72,11111222 
TABS,ioos:station:wmo:42043:1,2009-12-02T09:00:00Z,28.9818,-94.9186,1003.62,11111222 
TABS,ioos:station:wmo:42043:1,2009-12-02T09:30:00Z,28.9818,-94.9186,1003.4,11111222 
TABS,ioos:station:wmo:42043:1,2009-12-02T10:00:00Z,28.9818,-94.9186,1003.77,11111222 
TABS,ioos:station:wmo:42043:1,2009-12-02T10:30:00Z,28.9818,-94.9186,1003.84,11111222 
TABS,ioos:station:wmo:42043:1,2009-12-02T11:00:00Z,28.9818,-94.9186,1003.89,11111222 
TABS,ioos:station:wmo:42043:1,2009-12-02T11:30:00Z,28.9818,-94.9186,1004.09,11111222 
TABS,ioos:station:wmo:42043:1,2009-12-02T12:00:00Z,28.9818,-94.9186,1004.64,11111222 
TABS,ioos:station:wmo:42043:1,2009-12-02T12:30:00Z,28.9818,-94.9186,1004.95,11111222 
TABS,ioos:station:wmo:42043:1,2009-12-02T13:00:00Z,28.9818,-94.9186,1005.35,11111222 
TABS,ioos:station:wmo:42043:1,2009-12-02T13:30:00Z,28.9818,-94.9186,1006.18,11111222 
TABS,ioos:station:wmo:42043:1,2009-12-02T14:00:00Z,28.9818,-94.9186,1006.38,11111222 
TABS,ioos:station:wmo:42043:1,2009-12-02T14:30:00Z,28.9818,-94.9186,1007.34,11111222 
TABS,ioos:station:wmo:42043:1,2009-12-02T15:00:00Z,28.9818,-94.9186,1007.57,11111222 
TABS,ioos:station:wmo:42043:1,2009-12-02T15:30:00Z,28.9818,-94.9186,1008.32,11111222 
TABS,ioos:station:wmo:42043:1,2009-12-02T16:00:00Z,28.9818,-94.9186,1008.53,11111222 
TABS,ioos:station:wmo:42043:1,2009-12-02T16:30:00Z,28.9818,-94.9186,1008.39,11111222 
TABS,ioos:station:wmo:42043:1,2009-12-02T17:00:00Z,28.9818,-94.9186,1007.92,11111222 
TABS,ioos:station:wmo:42043:1,2009-12-02T17:30:00Z,28.9818,-94.9186,1008.52,11111222 
TABS,ioos:station:wmo:42043:1,2009-12-02T18:00:00Z,28.9818,-94.9186,1008.51,11111222 
TABS,ioos:station:wmo:42043:1,2009-12-02T18:30:00Z,28.9818,-94.9186,1007.94,11111222 
TABS,ioos:station:wmo:42043:1,2009-12-02T19:00:00Z,28.9818,-94.9186,1007.6,11111222 
TABS,ioos:station:wmo:42043:1,2009-12-02T19:30:00Z,28.9818,-94.9186,1007.63,11111222 
TABS,ioos:station:wmo:42043:1,2009-12-02T20:00:00Z,28.9818,-94.9186,1008.23,11111222 
TABS,ioos:station:wmo:42043:1,2009-12-02T20:30:00Z,28.9818,-94.9186,1008.47,11111222 
TABS,ioos:station:wmo:42043:1,2009-12-02T21:00:00Z,28.9818,-94.9186,1008.97,11111222 
TABS,ioos:station:wmo:42043:1,2009-12-02T21:30:00Z,28.9818,-94.9186,1009.03,11111222 
TABS,ioos:station:wmo:42043:1,2009-12-02T22:00:00Z,28.9818,-94.9186,1009.7,11111222 
TABS,ioos:station:wmo:42043:1,2009-12-02T22:30:00Z,28.9818,-94.9186,1010.6,11111222 
TABS,ioos:station:wmo:42043:1,2009-12-02T23:00:00Z,28.9818,-94.9186,1011.06,11111222 
TABS,ioos:station:wmo:42043:1,2009-12-02T23:30:00Z,28.9818,-94.9186,1011.81,11111222 
TABS,ioos:station:wmo:42043:1,2009-12-03T00:00:00Z,28.9818,-94.9186,1012.4,11111222 
TABS,ioos:station:wmo:42043:1,2009-12-03T00:30:00Z,28.9818,-94.9186,1013.6,11111222 
TABS,ioos:station:wmo:42043:1,2009-12-03T01:00:00Z,28.9818,-94.9186,1013.95,11111222 
TABS,ioos:station:wmo:42043:1,2009-12-03T01:30:00Z,28.9818,-94.9186,1014.35,11111222 
TABS,ioos:station:wmo:42043:1,2009-12-03T02:00:00Z,28.9818,-94.9186,1014.69,11111222 
TABS,ioos:station:wmo:42043:1,2009-12-03T02:30:00Z,28.9818,-94.9186,1014.77,11111222 
TABS,ioos:station:wmo:42043:1,2009-12-03T03:00:00Z,28.9818,-94.9186,1015.37,11111222 
TABS,ioos:station:wmo:42043:1,2009-12-03T03:30:00Z,28.9818,-94.9186,1016.15,11111222 
TABS,ioos:station:wmo:42043:1,2009-12-03T04:00:00Z,28.9818,-94.9186,1016.64,11111222 
TABS,ioos:station:wmo:42043:1,2009-12-03T04:30:00Z,28.9818,-94.9186,1016.41,11111222 
TABS,ioos:station:wmo:42043:1,2009-12-03T05:00:00Z,28.9818,-94.9186,1016.69,11111222 
TABS,ioos:station:wmo:42043:1,2009-12-03T05:30:00Z,28.9818,-94.9186,1016.91,11111222 
TABS,ioos:station:wmo:42043:1,2009-12-03T06:00:00Z,28.9818,-94.9186,1016.74,11111222 
TABS,ioos:station:wmo:42043:1,2009-12-03T06:30:00Z,28.9818,-94.9186,1016.63,11111222 
TABS,ioos:station:wmo:42043:1,2009-12-03T07:00:00Z,28.9818,-94.9186,1016.39,11111222 
TABS,ioos:station:wmo:42043:1,2009-12-03T07:30:00Z,28.9818,-94.9186,1017.15,11111222 
TABS,ioos:station:wmo:42043:1,2009-12-03T08:00:00Z,28.9818,-94.9186,1016.98,11111222 
TABS,ioos:station:wmo:42043:1,2009-12-03T08:30:00Z,28.9818,-94.9186,1017.36,11111222 
TABS,ioos:station:wmo:42043:1,2009-12-03T09:00:00Z,28.9818,-94.9186,1017.88,11111222 
TABS,ioos:station:wmo:42043:1,2009-12-03T09:30:00Z,28.9818,-94.9186,1017.96,11111222 
TABS,ioos:station:wmo:42043:1,2009-12-03T10:00:00Z,28.9818,-94.9186,1017.85,11111222 
TABS,ioos:station:wmo:42043:1,2009-12-03T10:30:00Z,28.9818,-94.9186,1018.13,11111222 
TABS,ioos:station:wmo:42043:1,2009-12-03T11:00:00Z,28.9818,-94.9186,1018.32,11111222 
TABS,ioos:station:wmo:42043:1,2009-12-03T11:30:00Z,28.9818,-94.9186,1018.51,11111222 
TABS,ioos:station:wmo:42043:1,2009-12-03T12:00:00Z,28.9818,-94.9186,1018.67,11111222 
TABS,ioos:station:wmo:42043:1,2009-12-03T12:30:00Z,28.9818,-94.9186,1019.34,11111222 
TABS,ioos:station:wmo:42043:1,2009-12-03T13:00:00Z,28.9818,-94.9186,1019.53,11111222 
TABS,ioos:station:wmo:42043:1,2009-12-03T13:30:00Z,28.9818,-94.9186,1020.38,11111222 
TABS,ioos:station:wmo:42043:1,2009-12-03T14:00:00Z,28.9818,-94.9186,1020.96,11111222 
TABS,ioos:station:wmo:42043:1,2009-12-03T14:30:00Z,28.9818,-94.9186,1021.46,11111222 
TABS,ioos:station:wmo:42043:1,2009-12-03T15:00:00Z,28.9818,-94.9186,1021.61,11111222 
TABS,ioos:station:wmo:42043:1,2009-12-03T15:30:00Z,28.9818,-94.9186,1021.85,11111222 
TABS,ioos:station:wmo:42043:1,2009-12-03T16:00:00Z,28.9818,-94.9186,1022.06,11111222 
TABS,ioos:station:wmo:42043:1,2009-12-03T16:30:00Z,28.9818,-94.9186,1022.05,11111222 
TABS,ioos:station:wmo:42043:1,2009-12-03T17:00:00Z,28.9818,-94.9186,1021.92,11111222 
TABS,ioos:station:wmo:42043:1,2009-12-03T17:30:00Z,28.9818,-94.9186,1021.5,11111222 
TABS,ioos:station:wmo:42043:1,2009-12-03T18:00:00Z,28.9818,-94.9186,1020.87,11111222 
TABS,ioos:station:wmo:42043:1,2009-12-03T18:30:00Z,28.9818,-94.9186,1020.53,11111222 
TABS,ioos:station:wmo:42043:1,2009-12-03T19:00:00Z,28.9818,-94.9186,1020.48,11111222 
TABS,ioos:station:wmo:42043:1,2009-12-03T19:30:00Z,28.9818,-94.9186,1020.16,11111222 
TABS,ioos:station:wmo:42043:1,2009-12-03T20:00:00Z,28.9818,-94.9186,1019.89,11111222 
TABS,ioos:station:wmo:42043:1,2009-12-03T20:30:00Z,28.9818,-94.9186,1020.16,11111222 
TABS,ioos:station:wmo:42043:1,2009-12-03T21:00:00Z,28.9818,-94.9186,1020.19,11111222 
TABS,ioos:station:wmo:42043:1,2009-12-03T21:30:00Z,28.9818,-94.9186,1020.06,11111222 
TABS,ioos:station:wmo:42043:1,2009-12-03T22:00:00Z,28.9818,-94.9186,1020.17,11111222 
TABS,ioos:station:wmo:42043:1,2009-12-03T22:30:00Z,28.9818,-94.9186,1019.96,11111222 
TABS,ioos:station:wmo:42043:1,2009-12-03T23:00:00Z,28.9818,-94.9186,1019.77,11111222 
TABS,ioos:station:wmo:42043:1,2009-12-03T23:30:00Z,28.9818,-94.9186,1019.95,11111222 
TABS,ioos:station:wmo:42043:1,2009-12-04T00:00:00Z,28.9818,-94.9186,1020.39,11111222 
TABS,ioos:station:wmo:42043:1,2009-12-04T00:30:00Z,28.9818,-94.9186,1020.16,11111222 
TABS,ioos:station:wmo:42043:1,2009-12-04T01:00:00Z,28.9818,-94.9186,1020.95,11111222 
TABS,ioos:station:wmo:42043:1,2009-12-04T01:30:00Z,28.9818,-94.9186,1021.15,11111222 
TABS,ioos:station:wmo:42043:1,2009-12-04T02:00:00Z,28.9818,-94.9186,1021.38,11111222 
TABS,ioos:station:wmo:42043:1,2009-12-04T02:30:00Z,28.9818,-94.9186,1021.9,11111222 
TABS,ioos:station:wmo:42043:1,2009-12-04T03:00:00Z,28.9818,-94.9186,1021.66,11111222 
TABS,ioos:station:wmo:42043:1,2009-12-04T03:30:00Z,28.9818,-94.9186,1021.87,11111222 
TABS,ioos:station:wmo:42043:1,2009-12-04T04:00:00Z,28.9818,-94.9186,1022.08,11111222 
TABS,ioos:station:wmo:42043:1,2009-12-04T04:30:00Z,28.9818,-94.9186,1022.04,11111222 
TABS,ioos:station:wmo:42043:1,2009-12-04T05:00:00Z,28.9818,-94.9186,1021.76,11111222 
TABS,ioos:station:wmo:42043:1,2009-12-04T05:30:00Z,28.9818,-94.9186,1021.94,11111222 
TABS,ioos:station:wmo:42043:1,2009-12-04T06:00:00Z,28.9818,-94.9186,1021.61,11111222 
TABS,ioos:station:wmo:42043:1,2009-12-04T06:30:00Z,28.9818,-94.9186,1021.43,11111222 
TABS,ioos:station:wmo:42043:1,2009-12-04T07:00:00Z,28.9818,-94.9186,1021.63,11111222 
TABS,ioos:station:wmo:42043:1,2009-12-04T07:30:00Z,28.9818,-94.9186,1021.44,11111222 
TABS,ioos:station:wmo:42043:1,2009-12-04T08:00:00Z,28.9818,-94.9186,1021.28,11111222 
TABS,ioos:station:wmo:42043:1,2009-12-04T08:30:00Z,28.9818,-94.9186,1020.97,11111222 
TABS,ioos:station:wmo:42043:1,2009-12-04T09:00:00Z,28.9818,-94.9186,1021.1,11111222 
TABS,ioos:station:wmo:42043:1,2009-12-04T09:30:00Z,28.9818,-94.9186,1021.32,11111222 
TABS,ioos:station:wmo:42043:1,2009-12-04T10:00:00Z,28.9818,-94.9186,1020.99,11111222 
TABS,ioos:station:wmo:42043:1,2009-12-04T10:30:00Z,28.9818,-94.9186,1021.15,11111222 
TABS,ioos:station:wmo:42043:1,2009-12-04T11:00:00Z,28.9818,-94.9186,1020.82,11111222 
TABS,ioos:station:wmo:42043:1,2009-12-04T11:30:00Z,28.9818,-94.9186,1020.52,11111222 
TABS,ioos:station:wmo:42043:1,2009-12-04T12:00:00Z,28.9818,-94.9186,1019.56,11111222 
TABS,ioos:station:wmo:42043:1,2009-12-04T12:30:00Z,28.9818,-94.9186,1020.32,11111222 
TABS,ioos:station:wmo:42043:1,2009-12-04T13:00:00Z,28.9818,-94.9186,1022.12,11111222 
TABS,ioos:station:wmo:42043:1,2009-12-04T13:30:00Z,28.9818,-94.9186,1022.8,11111222 
TABS,ioos:station:wmo:42043:1,2009-12-04T14:00:00Z,28.9818,-94.9186,1022.55,11111222 
TABS,ioos:station:wmo:42043:1,2009-12-04T14:30:00Z,28.9818,-94.9186,1022.3,11111222 
TABS,ioos:station:wmo:42043:1,2009-12-04T15:00:00Z,28.9818,-94.9186,1022.41,11111222 
TABS,ioos:station:wmo:42043:1,2009-12-04T15:30:00Z,28.9818,-94.9186,1023.14,11111222 
TABS,ioos:station:wmo:42043:1,2009-12-04T16:00:00Z,28.9818,-94.9186,1023.72,11111222 
TABS,ioos:station:wmo:42043:1,2009-12-04T16:30:00Z,28.9818,-94.9186,1022.95,11111222 
TABS,ioos:station:wmo:42043:1,2009-12-04T17:00:00Z,28.9818,-94.9186,1023.05,11111222 
TABS,ioos:station:wmo:42043:1,2009-12-04T17:30:00Z,28.9818,-94.9186,1022.25,11111222 
TABS,ioos:station:wmo:42043:1,2009-12-04T18:00:00Z,28.9818,-94.9186,1021.88,11111222 
TABS,ioos:station:wmo:42043:1,2009-12-04T18:30:00Z,28.9818,-94.9186,1022.2,11111222 
TABS,ioos:station:wmo:42043:1,2009-12-04T19:00:00Z,28.9818,-94.9186,1022.78,11111222 
TABS,ioos:station:wmo:42043:1,2009-12-04T19:30:00Z,28.9818,-94.9186,1022.01,11111222 
TABS,ioos:station:wmo:42043:1,2009-12-04T20:00:00Z,28.9818,-94.9186,1021.94,11111222 
TABS,ioos:station:wmo:42043:1,2009-12-04T20:30:00Z,28.9818,-94.9186,1021.85,11111222 
TABS,ioos:station:wmo:42043:1,2009-12-04T21:00:00Z,28.9818,-94.9186,1021.86,11111222 
TABS,ioos:station:wmo:42043:1,2009-12-04T21:30:00Z,28.9818,-94.9186,1022.85,11111222 
TABS,ioos:station:wmo:42043:1,2009-12-04T22:00:00Z,28.9818,-94.9186,1022.94,11111222 
TABS,ioos:station:wmo:42043:1,2009-12-04T22:30:00Z,28.9818,-94.9186,1022.87,11111222 
TABS,ioos:station:wmo:42043:1,2009-12-04T23:00:00Z,28.9818,-94.9186,1023.3,11111222 
TABS,ioos:station:wmo:42043:1,2009-12-04T23:30:00Z,28.9818,-94.9186,1023.44,11111222 
TABS,ioos:station:wmo:42043:1,2009-12-05T00:00:00Z,28.9818,-94.9186,1023.49,11111222 
TABS,ioos:station:wmo:42043:1,2009-12-05T00:30:00Z,28.9818,-94.9186,1024.02,11111222 
TABS,ioos:station:wmo:42043:1,2009-12-05T01:00:00Z,28.9818,-94.9186,1024.55,11111222 
TABS,ioos:station:wmo:42043:1,2009-12-05T01:30:00Z,28.9818,-94.9186,1024.71,11111222 
TABS,ioos:station:wmo:42043:1,2009-12-05T02:00:00Z,28.9818,-94.9186,1025.04,11111222 
TABS,ioos:station:wmo:42043:1,2009-12-05T02:30:00Z,28.9818,-94.9186,1024.92,11111222 
TABS,ioos:station:wmo:42043:1,2009-12-05T03:00:00Z,28.9818,-94.9186,1025.6,11111222 
TABS,ioos:station:wmo:42043:1,2009-12-05T03:30:00Z,28.9818,-94.9186,1025.61,11111222 
TABS,ioos:station:wmo:42043:1,2009-12-05T04:00:00Z,28.9818,-94.9186,1026.36,11111222 
TABS,ioos:station:wmo:42043:1,2009-12-05T04:30:00Z,28.9818,-94.9186,1026.29,11111222 
TABS,ioos:station:wmo:42043:1,2009-12-05T05:00:00Z,28.9818,-94.9186,1025.77,11111222 
TABS,ioos:station:wmo:42043:1,2009-12-05T05:30:00Z,28.9818,-94.9186,1025.07,11111222 
TABS,ioos:station:wmo:42043:1,2009-12-05T06:00:00Z,28.9818,-94.9186,1025.24,11111222 
TABS,ioos:station:wmo:42043:1,2009-12-05T06:30:00Z,28.9818,-94.9186,1025.35,11111222 
TABS,ioos:station:wmo:42043:1,2009-12-05T07:00:00Z,28.9818,-94.9186,1025.06,11111222 
TABS,ioos:station:wmo:42043:1,2009-12-05T07:30:00Z,28.9818,-94.9186,1025.2,11111222 
TABS,ioos:station:wmo:42043:1,2009-12-05T08:00:00Z,28.9818,-94.9186,1025.18,11111222 
TABS,ioos:station:wmo:42043:1,2009-12-05T08:30:00Z,28.9818,-94.9186,1025.1,11111222 
TABS,ioos:station:wmo:42043:1,2009-12-05T09:00:00Z,28.9818,-94.9186,1024.95,11111222 
TABS,ioos:station:wmo:42043:1,2009-12-05T09:30:00Z,28.9818,-94.9186,1025.03,11111222 
TABS,ioos:station:wmo:42043:1,2009-12-05T10:00:00Z,28.9818,-94.9186,1024.97,11111222 
TABS,ioos:station:wmo:42043:1,2009-12-05T10:30:00Z,28.9818,-94.9186,1024.94,11111222 
TABS,ioos:station:wmo:42043:1,2009-12-05T11:00:00Z,28.9818,-94.9186,1025.0,11111222 
TABS,ioos:station:wmo:42043:1,2009-12-05T11:30:00Z,28.9818,-94.9186,1025.15,11111222 
TABS,ioos:station:wmo:42043:1,2009-12-05T12:00:00Z,28.9818,-94.9186,1025.23,11111222 
TABS,ioos:station:wmo:42043:1,2009-12-05T12:30:00Z,28.9818,-94.9186,1025.3,11111222 
TABS,ioos:station:wmo:42043:1,2009-12-05T13:00:00Z,28.9818,-94.9186,1025.41,11111222 
TABS,ioos:station:wmo:42043:1,2009-12-05T13:30:00Z,28.9818,-94.9186,1025.62,11111222 
TABS,ioos:station:wmo:42043:1,2009-12-05T14:00:00Z,28.9818,-94.9186,1025.71,11111222 
TABS,ioos:station:wmo:42043:1,2009-12-05T14:30:00Z,28.9818,-94.9186,1025.79,11111222 
TABS,ioos:station:wmo:42043:1,2009-12-05T15:00:00Z,28.9818,-94.9186,1026.02,11111222 
TABS,ioos:station:wmo:42043:1,2009-12-05T15:30:00Z,28.9818,-94.9186,1026.31,11111222 
TABS,ioos:station:wmo:42043:1,2009-12-05T16:00:00Z,28.9818,-94.9186,1026.3,11111222 
TABS,ioos:station:wmo:42043:1,2009-12-05T16:30:00Z,28.9818,-94.9186,1026.19,11111222 
TABS,ioos:station:wmo:42043:1,2009-12-05T17:00:00Z,28.9818,-94.9186,1025.88,11111222 
TABS,ioos:station:wmo:42043:1,2009-12-05T17:30:00Z,28.9818,-94.9186,1025.26,11111222 
TABS,ioos:station:wmo:42043:1,2009-12-05T18:00:00Z,28.9818,-94.9186,1024.64,11111222 
TABS,ioos:station:wmo:42043:1,2009-12-05T18:30:00Z,28.9818,-94.9186,1024.01,11111222 
TABS,ioos:station:wmo:42043:1,2009-12-05T19:00:00Z,28.9818,-94.9186,1023.72,11111222 
TABS,ioos:station:wmo:42043:1,2009-12-05T19:30:00Z,28.9818,-94.9186,1023.13,11111222 
TABS,ioos:station:wmo:42043:1,2009-12-05T20:00:00Z,28.9818,-94.9186,1022.76,11111222 
TABS,ioos:station:wmo:42043:1,2009-12-05T20:30:00Z,28.9818,-94.9186,1022.47,11111222 
TABS,ioos:station:wmo:42043:1,2009-12-05T21:00:00Z,28.9818,-94.9186,1022.52,11111222 
TABS,ioos:station:wmo:42043:1,2009-12-05T21:30:00Z,28.9818,-94.9186,1022.39,11111222 
TABS,ioos:station:wmo:42043:1,2009-12-05T22:00:00Z,28.9818,-94.9186,1021.82,11111222 
TABS,ioos:station:wmo:42043:1,2009-12-05T22:30:00Z,28.9818,-94.9186,1021.85,11111222 
TABS,ioos:station:wmo:42043:1,2009-12-06T00:00:00Z,28.9818,-94.9186,1021.21,11111222 
TABS,ioos:station:wmo:42043:1,2009-12-06T00:30:00Z,28.9818,-94.9186,1021.02,11111222 
TABS,ioos:station:wmo:42043:1,2009-12-06T01:00:00Z,28.9818,-94.9186,1021.06,11111222 
TABS,ioos:station:wmo:42043:1,2009-12-06T01:30:00Z,28.9818,-94.9186,1020.93,11111222 
TABS,ioos:station:wmo:42043:1,2009-12-06T02:00:00Z,28.9818,-94.9186,1020.87,11111222 
TABS,ioos:station:wmo:42043:1,2009-12-06T02:30:00Z,28.9818,-94.9186,1020.56,11111222 
TABS,ioos:station:wmo:42043:1,2009-12-06T03:00:00Z,28.9818,-94.9186,1020.51,11111222 
TABS,ioos:station:wmo:42043:1,2009-12-06T03:30:00Z,28.9818,-94.9186,1020.31,11111222 
TABS,ioos:station:wmo:42043:1,2009-12-06T04:00:00Z,28.9818,-94.9186,1020.6,11111222 
TABS,ioos:station:wmo:42043:1,2009-12-06T04:30:00Z,28.9818,-94.9186,1020.53,11111222 
TABS,ioos:station:wmo:42043:1,2009-12-06T05:00:00Z,28.9818,-94.9186,1020.2,11111222 
TABS,ioos:station:wmo:42043:1,2009-12-06T05:30:00Z,28.9818,-94.9186,1019.62,11111222 
TABS,ioos:station:wmo:42043:1,2009-12-06T06:00:00Z,28.9818,-94.9186,1019.21,11111222 
TABS,ioos:station:wmo:42043:1,2009-12-06T06:30:00Z,28.9818,-94.9186,1018.63,11111222 
TABS,ioos:station:wmo:42043:1,2009-12-06T07:00:00Z,28.9818,-94.9186,1018.38,11111222 
TABS,ioos:station:wmo:42043:1,2009-12-06T07:30:00Z,28.9818,-94.9186,1018.26,11111222 
TABS,ioos:station:wmo:42043:1,2009-12-06T08:00:00Z,28.9818,-94.9186,1017.39,11111222 
TABS,ioos:station:wmo:42043:1,2009-12-06T08:30:00Z,28.9818,-94.9186,1017.53,11111222 
TABS,ioos:station:wmo:42043:1,2009-12-06T09:00:00Z,28.9818,-94.9186,1016.97,11111222 
TABS,ioos:station:wmo:42043:1,2009-12-06T09:30:00Z,28.9818,-94.9186,1016.63,11111222 
TABS,ioos:station:wmo:42043:1,2009-12-06T10:00:00Z,28.9818,-94.9186,1016.96,11111222 
TABS,ioos:station:wmo:42043:1,2009-12-06T10:30:00Z,28.9818,-94.9186,1016.75,11111222 
TABS,ioos:station:wmo:42043:1,2009-12-06T11:00:00Z,28.9818,-94.9186,1016.89,11111222 
TABS,ioos:station:wmo:42043:1,2009-12-06T11:30:00Z,28.9818,-94.9186,1016.59,11111222 
TABS,ioos:station:wmo:42043:1,2009-12-06T12:00:00Z,28.9818,-94.9186,1016.66,11111222 
TABS,ioos:station:wmo:42043:1,2009-12-06T12:30:00Z,28.9818,-94.9186,1017.49,11111222 
TABS,ioos:station:wmo:42043:1,2009-12-06T13:00:00Z,28.9818,-94.9186,1017.0,11111222 
TABS,ioos:station:wmo:42043:1,2009-12-06T13:30:00Z,28.9818,-94.9186,1016.38,11111222 
TABS,ioos:station:wmo:42043:1,2009-12-06T14:00:00Z,28.9818,-94.9186,1016.64,11111222 
TABS,ioos:station:wmo:42043:1,2009-12-06T14:30:00Z,28.9818,-94.9186,1016.72,11111222 
TABS,ioos:station:wmo:42043:1,2009-12-06T15:00:00Z,28.9818,-94.9186,1017.11,11111222 
TABS,ioos:station:wmo:42043:1,2009-12-06T15:30:00Z,28.9818,-94.9186,1016.98,11111222 
TABS,ioos:station:wmo:42043:1,2009-12-06T16:00:00Z,28.9818,-94.9186,1016.95,11111222 
TABS,ioos:station:wmo:42043:1,2009-12-06T16:30:00Z,28.9818,-94.9186,1016.92,11111222 
TABS,ioos:station:wmo:42043:1,2009-12-06T17:00:00Z,28.9818,-94.9186,1016.46,11111222 
TABS,ioos:station:wmo:42043:1,2009-12-06T17:30:00Z,28.9818,-94.9186,1016.09,11111222 
TABS,ioos:station:wmo:42043:1,2009-12-06T18:00:00Z,28.9818,-94.9186,1015.42,11111222 
TABS,ioos:station:wmo:42043:1,2009-12-06T18:30:00Z,28.9818,-94.9186,1015.11,11111222 
TABS,ioos:station:wmo:42043:1,2009-12-06T19:00:00Z,28.9818,-94.9186,1014.51,11111222 
TABS,ioos:station:wmo:42043:1,2009-12-06T19:30:00Z,28.9818,-94.9186,1014.12,11111222 